Regional Weather Roundup
Issued by NWS

Home | Current Version | Previous Version | Text Only | Print | Product List | Glossary Off
Versions: 1 2 3 4 5 6 7 8 9 10 11 12 13 14 15 16 17 18 19 20 21 22 23 24 25 26 27

000
ASUS45 KBOU 200007
RWRCO

WEATHER ROUNDUP FOR COLORADO
NATIONAL WEATHER SERVICE DENVER/BOULDER CO
600 PM MDT TUE SEP 19 2017

NOTE: "FAIR" INDICATES FEW OR NO CLOUDS BELOW 12000 FEET WITH NO
SIGNIFICANT WEATHER AND/OR OBSTRUCTIONS TO VISIBILITY.

COZ001>005-013-030-031-200100-
...NORTHWEST COLORADO...

CITY           SKY/WX    TMP DP  RH WIND       PRES   REMARKS
CRAIG          LGT RAIN  44  32  62 N9        29.99R
HAYDEN         PTSUNNY   46  31  55 W15G22    29.98R
MEEKER         FAIR      50  34  54 NE20G26   29.93R
RABBIT EARS PA CLOUDY    32  32 100 W13G23    30.04R WCI  22
STEAMBOAT SPGS PTSUNNY   46  30  54 W10       29.95R
WALDEN         FAIR      37  27  65 N29       29.96R
$$

COZ006>008-011-200100-
...WEST CENTRAL VALLEYS...

CITY           SKY/WX    TMP DP  RH WIND       PRES   REMARKS
GRAND JUNCTION FAIR      78  29  16 SW18G28   29.74S
MONTROSE       FAIR      76  21  12 SW18      29.84F
EAGLE          FAIR      72  25  17 SW18G25   29.82R
RIFLE          FAIR      74  25  16 SW18G26   29.77R
DELTA          FAIR      82  22  11 S15G21    29.77F
NUCLA          NOT AVBL
$$

COZ017>023-064>068-200100-
...SOUTHWEST COLORADO...

CITY           SKY/WX    TMP DP  RH WIND       PRES   REMARKS
DURANGO        FAIR      74  22  14 W16G28    29.95S
CORTEZ         FAIR      77  20  12 SW16G28   29.90S
PAGOSA SPRINGS FAIR      71  11  10 SW9G18    30.03S
TELLURIDE      FAIR      62  15  16 SW16G31   30.11R
WOLF CREEK PAS FAIR      46  16  29 S33G45    30.26F
$$

COZ009-010-012-014-032>034-037-058>063-200100-
...CENTRAL COLORADO...

CITY           SKY/WX    TMP DP  RH WIND       PRES   REMARKS
ASPEN          FAIR      68  20  16 VRB3      29.90S
BUENA VISTA    FAIR      69  15  12 W22G32    29.88S
COPPER MTN     FAIR      52  14  22 W24G33    30.16R
BERTHOUD PASS  FAIR      45  36  70 W16G31    30.17R
COTTONWOOD PAS FAIR      63   7  11 W18G30    30.03R
GUNNISON       FAIR      67  23  19 W17G25    29.94S
KREMMLING      PTSUNNY   64  30  27 N18G28    29.86R
LEADVILLE      FAIR      58  14  17 W14G22    30.00R
MONARCH PASS   FAIR      50  16  25 W49G64    30.24F
SALIDA         FAIR      73  15  11 W23G33    29.94S
SUNLIGHT       FAIR      52  23  32 SW13G26   30.11S
WILKERSON PASS FAIR      54  12  19 SW20G37   30.11R
$$

COZ069>075-200100-
...SAN LUIS VALLEY/SANGRE DE CRISTO MOUNTAINS...

CITY           SKY/WX    TMP DP  RH WIND       PRES   REMARKS
ALAMOSA        FAIR      70  18  13 W20G29    29.96R
DEL NORTE      FAIR      68  20  16 SW25G31   29.97R
LA VETA PASS   FAIR      57  18  21 S36G59    30.16R
SAGUACHE       FAIR      70  23  17 N15G28    29.91R
$$

COZ035-036-038>040-200100-
...NORTHERN COLORADO FRONT RANGE...

CITY           SKY/WX    TMP DP  RH WIND       PRES   REMARKS
DENVER INTL AP FAIR      72  33  24 N35G45    29.65R
DMNS CITY PARK   N/A     75  28  17 N24G41    29.65R
AURORA         MOSUNNY   82  15   8 NE16G28   29.65R
FRONT RANGE AP MOSUNNY   81  30  16 N36G51    29.66R
ERIE MUNI ARPT FAIR      83  20   9 NE32G39   29.66R
BOULDER MUN AP FAIR      82  25  12 SW13G25   29.61R
CENTENNIAL     FAIR      81  13   7 NE13      29.66R
BROOMFIELD     MOSUNNY   82  21  10 E15G23    29.65
FORT COLLINS   FAIR      68  36  30 NE24G31   29.65R
LONGMONT       FAIR      84  24  11 W12G22    29.61R
$$

COZ041-046-047-076>085-087-088-200100-
...PIKES PEAK/PALMER DIVIDE AND SOUTHERN FOOTHILLS...

CITY           SKY/WX    TMP DP  RH WIND       PRES   REMARKS
COLO. SPRINGS  PTSUNNY   80  22  11 S14       29.72R
A. F. ACADEMY  FAIR      79  11   7 W17G36    29.74R
SCHRIEVER AFB  FAIR      78  18  10 S15       29.73R
CHEYENNE MTN   NOT AVBL
ELLICOTT         N/A    N/A N/A N/A SW21G30   29.70R
FALCON         FAIR      75  16  10 S17       29.78R
FORT CARSON    FAIR      82  16   8 SW9       29.67R
LIMON          FAIR      80  18  10 S20G29    29.64S
MONUMENT HILL  FAIR      75  19  12 W21G28    29.78R
CANON CITY     SUNNY     86  23  10 SW10      29.65R
WALSENBURG     FAIR      81  19  10 W26G36    29.76S
TRINIDAD       FAIR      78  25  14 W25G41    29.73R
$$

COZ042>045-048>051-090-091-200100-
...NORTHEAST COLORADO...

CITY           SKY/WX    TMP DP  RH WIND       PRES   REMARKS
GREELEY ARPT   FAIR      64  35  34 N24G37    29.68R
AKRON          FAIR      73  39  29 N40G49    29.65R
BURLINGTON     FAIR      80  23  12 SW13      29.59S
WRAY           FAIR      86  21   9 SW6       29.55R
YUMA           FAIR      82  14   7 SW6       29.57R
STERLING       FAIR      68  39  34 N33G45    29.64R
HOLYOKE        FAIR      86  36  16 NW26G33   29.59R
FORT MORGAN    FAIR      66  32  28 N40G51    29.67R
$$

COZ086-089-092>099-200100-
...SOUTHEAST COLORADO...

CITY           SKY/WX    TMP DP  RH WIND       PRES   REMARKS
PUEBLO         FAIR      86  21   9 SW13      29.59F
LA JUNTA       FAIR      84  25  11 SW13      29.61S
LAMAR          FAIR      86  22   9 SW20G28   29.58R
SPRINGFIELD    NOT AVBL
$$




USA.gov is the U.S. government's official web portal to all federal, state and local government web resources and services.